Starlink 32380

operational
NORAD ID: 61069 Int'l Des: 2024-164 Owner: SPXS Country: US Constellation: starlink
LEOCIRCULAR

About Starlink 32380

Description loading...

Live Position

Loading 3D Globe...

Upcoming Passes

Altitude History

Altitude vs Time

uPlot chart will show altitude changes over time

Two-Line Element Set

1 61069U 24164V 26020.20513351 .00001374 00000-0 58463-4 0 9994
2 61069 53.1609 316.3781 0000802 107.7823 252.3266 15.30219008 76058
Epoch: Jan 20, 2026 • Age: 25 hours

Current Status

Altitude 481.8 km
Velocity 7.62 km/s
Sub-Earth Point -22.13°S, 85.07°E
Launch Date Sep 13, 2024
Age 1.3 years
Type internet

Technical Details

Classification Payload
Mass 730.00 kg
Dry Mass 700.00 kg
Total Mass 730.00 kg
Length 0.30 m
Diameter 4.10 m
Span 29.00 m
Shape Box + pan
Manufacturer SPXS
Bus Type Starlink V2M
Phase Status In Orbit
Owner/State SPXS/US

Large Constellations

Loading constellations...